User: anonymous   Login
Location: Cutler
(25.6150°N, 80.3110°W)
Time: 13:24:03
(UTC-04:00)
Language:

Cosmos 2360 Rocket - Orbit

View from above orbital plane
View from above orbital plane
View from above satellite
View from above satellite

Ground track
Ground track

The orbit data is extracted from the following two-line orbital elements,

1 25407U 98045B   17295.89407182 -.00000167 +00000-0 -60690-4 0  9998
2 25407 071.0084 133.0618 0007618 355.2908 004.8142 14.15765971993989
Epoch (UTC): 22 October 2017 21:27:27
Eccentricity: 0.0007618
inclination: 71.0084°
perigee height: 834 km
apogee height: 845 km
right ascension of ascending node: 133.0618°
argument of perigee: 355.2908°
revolutions per day: 14.15765971
mean anomaly at epoch: 4.8142°
orbit number at epoch: 99398

The dashed part of the orbit path shows where the satellite is in the earth's shadow,  

DLR